Vertical_Velocity
11 26 17 19 14 3 -1 -0 3 5 3 2 0 2 1 -5 -1 -1 16 4 0 -2 3 2 0 -2 -1 -2 1 3 -3 1 1 -2 2 -0 0 -2 -1 0 -0 -0 0 -0 -1
-9 24 9 2 9 5 -6 -5 -0 6 3 1 4 4 -2 1 -0 1 -9 1 3 1 5 2 1 -1 -1 0 -2 -2 0 -0 -0 3 0 -1 1 -0 -2 -0 0 -2 -2 -2 0
-13 14 2 13 9 4 10 -3 0 3 2 1 5 0 1 1 -7 26 1 2 4 2 -0 -5 -0 -2 2 -1 3 0 3 -0 -1 5 -0 -0 -0 0 -1 0 -0 -2 0 -2 -1
-3 -4 -10 15 28 10 -7 -8 2 2 2 3 4 0 3 -4 0 -5 2 0 1 -4 -0 1 -0 2 -2 -1 2 -4 -1 -2 4 -0 1 1 0 3 -0 -4 2 -2 0 -1 -3
-1 -5 3 24 20 2 -0 -10 0 0 -0 1 2 -4 -4 -1 -0 0 2 -2 -1 3 3 0 -3 4 0 2 6 -2 9 1 2 1 2 -3 3 0 -0 -2 -0 0 -1 -1 -2
-2 -7 2 4 8 2 2 -4 -3 4 1 -2 -2 -2 -2 -1 0 7 0 -2 2 3 -2 0 6 3 -2 1 4 1 -1 -2 -1 -0 0 -1 -1 2 -1 -0 -0 0 -1 -1 -1
-5 -16 -13 26 11 33 13 25 4 5 3 -4 -4 5 2 24 9 -1 4 6 -1 3 -1 1 -1 1 7 -2 3 -3 0 -2 -0 -2 -1 0 -2 7 -1 -0 1 1 1 0 -0
14 -13 -11 8 18 2 3 27 -2 1 1 1 0 -2 -0 3 0 -6 -1 -2 -4 -1 0 -2 0 -4 0 8 -2 -4 -1 -2 4 3 -3 -6 6 -4 0 -2 -2 1 1 1 0
-4 -2 -12 3 8 51 1 4 13 5 -6 11 -5 -6 -1 -9 -3 1 -2 5 5 4 1 -1 -5 -1 -2 3 -2 -3 7 7 -5 -6 -1 -4 7 -6 3 -2 1 -2 -1 1 -2
17 -15 -6 -8 5 7 -5 19 7 16 8 21 35 12 -15 -20 0 2 3 -1 1 1 1 -1 -6 -4 -2 -4 -5 10 6 -4 -1 -3 -3 -0 6 -5 5 -0 -3 0 -0 -1 -0
-2 -4 -9 3 2 18 28 29 19 13 7 -40 -8 -9 22 8 3 -6 2 6 2 -3 -8 -8 -4 -9 21 6 0 0 0 -1 2 -2 -3 -1 -3 -2 -2 1 -2 -0 4 -0 2
-10 6 -18 -12 -9 11 39 -6 -1 24 -39 -27 1 4 3 15 2 -14 -5 -7 -5 1 -6 -6 -12 12 -1 -7 2 -4 12 1 -1 0 3 -3 5 -0 1 1 2 -2 -4 1 -1
2 2 17 -3 19 17 17 19 4 1 -7 -0 18 5 8 2 3 7 3 5 10 0 4 10 12 4 -4 -4 -4 1 -1 2 -1 -2 0 -3 3 -1 1 -4 -1 -1 1 -5 2
14 10 5 -0 16 18 4 -4 6 12 16 2 14 2 8 -2 14 -3 9 5 -6 -2 7 1 -0 3 -3 -0 -0 2 3 0 -1 -2 -3 -5 2 -5 -3 4 -4 -1 0 -1 1
7 1 3 2 24 20 0 0 10 16 41 33 1 19 -19 7 33 -20 -5 6 -2 9 7 -8 -2 0 -3 1 7 -4 5 -0 -10 1 3 -2 -20 21 -8 1 8 5 1 -0 1
-1 8 6 9 10 24 30 19 10 31 25 -5 -7 -16 0 -9 15 14 -5 0 6 6 -2 6 6 -6 4 7 -0 0 -4 1 0 -5 -24 -3 -10 26 -1 5 2 9 3 3 3
-0 12 15 -3 21 16 4 36 29 14 6 6 -10 6 5 2 -17 -6 -16 -6 -18 -20 -19 -7 -7 2 9 -0 -6 -4 4 -1 -7 -10 -17 8 -24 31 1 16 -0 5 2 -2 -1
-10 2 2 4 25 12 25 50 20 1 7 -13 0 15 8 -4 11 10 -0 -6 -8 -0 9 -5 -19 -8 -5 -1 9 5 10 1 -8 -7 -4 -5 -33 2 6 -1 0 6 -2 -6 -0
-1 16 19 20 20 19 13 14 -15 -8 -6 -11 1 9 16 3 -3 -22 -12 24 11 6 -3 -9 -13 5 5 10 18 -1 -14 1 -1 -5 -2 -11 -6 -5 2 2 -2 -8 -4 3 -6
6 12 4 11 9 29 25 -5 3 -13 3 23 3 -6 -17 -21 -19 -8 -6 0 -6 -1 12 6 2 7 6 8 -11 -4 10 -6 -13 -7 -1 -11 -4 -3 4 -2 0 -1 -13 -8 -5
-1 5 6 12 26 14 2 -1 -4 -8 9 8 -6 11 -1 -19 2 2 19 10 -2 1 11 14 3 4 -3 -12 9 3 3 1 15 -2 -8 -3 -4 3 1 -0 2 -1 -3 -9 -4
-3 1 22 21 8 5 18 6 -2 8 9 -3 23 21 15 5 -3 -1 -16 30 17 14 10 2 -0 -1 33 16 9 5 -4 -19 -16 -1 0 -1 -19 5 6 6 2 -0 7 -3 -3
1 4 12 15 -1 -2 19 11 -7 -12 1 -7 -0 -8 10 2 -6 2 8 16 9 -4 -17 8 -16 5 1 -17 -26 -20 4 12 1 -1 -13 -5 -13 -7 0 10 5 6 2 2 -5
-7 -5 3 2 4 7 25 11 5 8 14 14 17 13 17 -13 -11 2 10 -6 10 20 11 8 -2 -1 -4 34 28 4 4 4 6 -13 2 -28 -11 2 -0 3 5 -3 -1 -2 -2
-5 -14 0 20 -9 0 9 -2 0 -3 -18 -3 3 1 7 -2 -7 -11 -9 6 3 4 8 -7 -13 -4 -4 -2 0 0 5 4 -11 -18 -22 1 -34 22 -1 -5 1 -3 2 -2 -0
-4 -10 -6 20 6 10 17 3 3 -6 0 -25 -7 14 4 -8 -18 11 9 3 3 5 -1 -6 -0 1 3 -3 -1 -1 -1 -26 -22 3 -29 -6 -36 38 5 25 13 7 3 -2 -1
-1 -13 -11 -0 11 4 3 -4 -4 0 -0 4 17 13 1 9 12 29 23 28 28 15 16 7 11 2 -2 10 10 -25 -46 14 8 1 -4 -16 18 -10 -11 -2 17 4 -15 -3 5
Height
5584 5595 5614 5630 5643 5657 5671 5685 5694 5708 5720 5734 5744 5756 5764 5771 5778 5786 5794 5802 5806 5812 5815 5819 5825 5828 5833 5836 5841 5847 5850 5855 5858 5861 5864 5865 5866 5868 5868 5871 5871 5874 5875 5875 5874
5569 5583 5598 5614 5631 5645 5659 5674 5683 5697 5710 5722 5735 5745 5756 5764 5772 5780 5790 5794 5800 5806 5811 5816 5821 5823 5827 5832 5836 5841 5848 5853 5854 5858 5862 5864 5866 5868 5869 5870 5870 5871 5873 5874 5874
5557 5567 5588 5603 5617 5634 5648 5662 5673 5687 5700 5712 5725 5736 5747 5756 5764 5777 5780 5787 5794 5800 5805 5811 5814 5818 5823 5827 5832 5838 5845 5847 5850 5853 5859 5862 5864 5867 5868 5868 5869 5871 5872 5874 5872
5542 5556 5578 5591 5608 5623 5640 5652 5665 5677 5692 5703 5714 5725 5737 5748 5759 5769 5773 5781 5788 5794 5798 5805 5811 5815 5820 5822 5828 5833 5839 5842 5845 5849 5853 5858 5860 5864 5865 5864 5869 5871 5871 5872 5872
5534 5546 5563 5582 5597 5613 5629 5641 5655 5669 5682 5696 5706 5715 5727 5739 5751 5761 5767 5774 5781 5787 5794 5800 5806 5811 5815 5819 5824 5828 5833 5836 5840 5845 5849 5852 5856 5859 5861 5863 5867 5869 5869 5870 5871
5524 5539 5550 5568 5586 5606 5621 5634 5648 5661 5673 5687 5698 5708 5720 5732 5743 5753 5759 5767 5776 5783 5789 5794 5800 5806 5811 5815 5819 5824 5827 5830 5834 5838 5842 5847 5851 5855 5857 5862 5865 5866 5867 5869 5869
5518 5529 5543 5562 5583 5596 5612 5623 5638 5654 5665 5679 5692 5703 5711 5726 5733 5742 5751 5760 5768 5777 5784 5790 5796 5802 5808 5811 5815 5819 5822 5825 5828 5831 5835 5839 5844 5853 5852 5856 5859 5862 5864 5867 5868
5514 5523 5536 5554 5572 5588 5602 5614 5630 5646 5658 5671 5684 5693 5702 5711 5722 5733 5743 5751 5760 5769 5775 5782 5788 5794 5799 5804 5810 5814 5815 5819 5824 5825 5829 5834 5840 5845 5846 5851 5854 5857 5860 5864 5865
5504 5512 5529 5544 5563 5581 5596 5611 5623 5638 5652 5662 5669 5682 5692 5701 5714 5723 5734 5744 5754 5763 5769 5774 5780 5786 5793 5799 5803 5805 5808 5817 5819 5821 5824 5828 5833 5838 5842 5845 5849 5852 5855 5858 5861
5495 5508 5520 5539 5560 5575 5592 5604 5615 5627 5637 5653 5656 5664 5680 5698 5709 5715 5726 5735 5744 5753 5761 5767 5772 5779 5786 5791 5795 5801 5806 5814 5816 5818 5820 5822 5828 5832 5836 5838 5842 5846 5849 5853 5857
5487 5502 5518 5537 5550 5567 5581 5587 5590 5598 5615 5634 5644 5672 5677 5688 5697 5705 5716 5726 5733 5742 5752 5755 5765 5773 5784 5789 5793 5797 5802 5806 5809 5810 5814 5818 5823 5826 5830 5834 5835 5840 5844 5847 5851
5486 5499 5517 5532 5545 5561 5568 5576 5603 5618 5620 5632 5644 5654 5665 5677 5687 5695 5707 5718 5728 5737 5745 5751 5758 5769 5774 5778 5784 5791 5794 5800 5802 5804 5809 5814 5820 5821 5823 5828 5831 5833 5835 5841 5843
5477 5497 5510 5525 5538 5550 5562 5577 5589 5599 5610 5623 5631 5641 5656 5668 5678 5688 5700 5710 5720 5728 5737 5746 5755 5762 5768 5773 5779 5785 5789 5793 5798 5800 5802 5808 5814 5816 5819 5820 5822 5826 5830 5833 5837
5469 5484 5500 5515 5533 5541 5555 5569 5583 5597 5609 5617 5620 5630 5642 5654 5665 5678 5690 5702 5712 5722 5730 5736 5745 5753 5760 5766 5773 5777 5783 5787 5791 5794 5794 5800 5803 5809 5812 5816 5818 5820 5822 5827 5829
5460 5478 5495 5511 5524 5540 5554 5567 5579 5592 5594 5602 5612 5622 5633 5647 5661 5666 5681 5693 5705 5718 5725 5731 5737 5747 5753 5759 5766 5771 5776 5779 5785 5787 5789 5792 5792 5807 5807 5810 5814 5815 5816 5818 5821
5454 5471 5487 5502 5515 5531 5546 5561 5572 5577 5577 5584 5596 5608 5620 5634 5647 5660 5670 5682 5693 5703 5712 5721 5730 5737 5746 5749 5755 5761 5767 5772 5775 5780 5779 5787 5789 5793 5802 5806 5807 5807 5809 5810 5811
5449 5465 5481 5493 5510 5522 5535 5547 5554 5554 5565 5575 5586 5601 5615 5627 5638 5649 5662 5672 5681 5691 5701 5712 5720 5728 5733 5739 5746 5752 5758 5760 5765 5768 5774 5782 5782 5783 5798 5800 5800 5801 5802 5802 5803
5441 5459 5473 5487 5499 5512 5522 5532 5536 5544 5556 5567 5584 5600 5609 5621 5632 5642 5652 5663 5677 5688 5697 5705 5713 5721 5728 5733 5742 5745 5750 5751 5754 5762 5769 5772 5776 5781 5788 5791 5792 5793 5794 5794 5795
5435 5452 5464 5478 5489 5502 5507 5517 5525 5536 5551 5566 5577 5591 5599 5609 5623 5634 5654 5664 5672 5683 5690 5697 5705 5711 5718 5724 5730 5732 5738 5744 5747 5751 5758 5763 5772 5776 5777 5783 5785 5784 5784 5785 5784
5429 5441 5454 5468 5479 5492 5500 5511 5522 5536 5550 5564 5573 5581 5592 5607 5623 5636 5645 5657 5666 5674 5681 5689 5693 5701 5707 5711 5716 5725 5730 5733 5737 5740 5745 5753 5759 5765 5767 5770 5773 5774 5775 5774 5775
5422 5434 5447 5458 5471 5483 5494 5507 5520 5532 5546 5556 5569 5585 5598 5611 5623 5629 5642 5650 5657 5664 5670 5676 5684 5691 5694 5704 5710 5715 5719 5723 5728 5730 5733 5741 5748 5755 5758 5759 5763 5765 5766 5767 5769
5414 5428 5439 5453 5464 5475 5490 5502 5516 5527 5536 5554 5566 5582 5595 5605 5615 5624 5635 5645 5651 5657 5662 5666 5672 5681 5691 5694 5699 5703 5710 5712 5716 5721 5725 5729 5742 5746 5748 5750 5749 5750 5753 5755 5756
5408 5421 5432 5445 5457 5472 5486 5496 5511 5520 5534 5547 5560 5574 5588 5599 5608 5620 5628 5635 5643 5651 5656 5662 5663 5671 5674 5681 5688 5695 5699 5705 5707 5707 5715 5719 5738 5732 5736 5738 5739 5738 5739 5742 5746
5402 5412 5425 5439 5452 5465 5479 5490 5504 5514 5527 5542 5555 5563 5574 5586 5602 5610 5619 5627 5638 5645 5646 5649 5654 5664 5673 5685 5688 5690 5695 5698 5698 5697 5715 5714 5732 5728 5731 5730 5731 5729 5731 5732 5733
5399 5408 5421 5438 5449 5459 5471 5483 5495 5507 5520 5535 5546 5561 5572 5581 5592 5603 5611 5619 5623 5630 5635 5640 5649 5659 5664 5669 5673 5676 5681 5683 5684 5698 5692 5713 5714 5718 5718 5720 5717 5716 5718 5719 5721
5398 5406 5417 5432 5443 5453 5464 5474 5491 5506 5519 5533 5548 5559 5566 5579 5593 5600 5603 5608 5614 5620 5624 5632 5643 5648 5653 5658 5660 5663 5668 5674 5681 5688 5686 5703 5700 5711 5709 5709 5709 5707 5707 5708 5710
5393 5401 5411 5425 5438 5449 5459 5471 5487 5502 5519 5530 5541 5549 5560 5572 5581 5588 5595 5601 5607 5612 5620 5626 5633 5638 5642 5646 5646 5646 5667 5667 5673 5677 5684 5685 5701 5692 5694 5696 5696 5695 5695 5699 5699